When you browse on this site, cookies collect data to enhance your experience and personalize the content and advertising you see.
Visit our Privacy Policy to learn more. By continuing to use the site, you agree to this use of cookies and data.
  • Em Portugal
  • Lista de países
  • Para 7 dias
  • Temperatura da água
  • Mapas de satélite
  • Mapa do tempo
  • Widgets de tempo
  • user-avatar
    Iniciar Sessão

    Previsão horária em Rusany

    Hoje, 26 Abril, Sexta-feira

    Tempo Temperatura Precipitação Vento Pressão Humidade
    00:00 +13°C° 0 mm 2 m/s 748 mmHg 59%
    01:00 +13°C° 0 mm 2 m/s 748 mmHg 61%
    02:00 +10°C° 0 mm 1 m/s 748 mmHg 63%
    03:00 +10°C° 0 mm 1 m/s 748 mmHg 64%
    04:00 +10°C° 0 mm 1 m/s 748 mmHg 64%
    05:00 +10°C° 0 mm 1 m/s 748 mmHg 65%
    06:00 +12°C° 0 mm 2 m/s 748 mmHg 61%
    07:00 +14°C° 0 mm 2 m/s 748 mmHg 57%
    08:00 +16°C° 0 mm 2 m/s 747 mmHg 53%
    09:00 +18°C° 0 mm 3 m/s 747 mmHg 49%
    10:00 +19°C° 0 mm 3 m/s 747 mmHg 45%
    11:00 +21°C° 0 mm 4 m/s 747 mmHg 41%
    12:00 +21°C° 0 mm 4 m/s 747 mmHg 40%
    13:00 +21°C° 0 mm 4 m/s 746 mmHg 39%
    14:00 +22°C° 0 mm 4 m/s 746 mmHg 38%
    15:00 +21°C° 0 mm 4 m/s 746 mmHg 40%
    16:00 +21°C° 0 mm 3 m/s 745 mmHg 43%
    17:00 +21°C° 0 mm 3 m/s 745 mmHg 45%
    18:00 +19°C° 0 mm 3 m/s 745 mmHg 49%
    19:00 +17°C° 0 mm 2 m/s 745 mmHg 53%
    20:00 +15°C° 0 mm 2 m/s 744 mmHg 57%
    21:00 +14°C° 0 mm 2 m/s 744 mmHg 58%
    22:00 +14°C° 0 mm 2 m/s 744 mmHg 58%
    23:00 +12°C° 0 mm 3 m/s 744 mmHg 58%

    Amanhã, 27 Abril, Sábado

    Tempo Temperatura Precipitação Vento Pressão Humidade
    00:00 +12°C° 0 mm 2 m/s 744 mmHg 59%
    01:00 +12°C° 0 mm 2 m/s 744 mmHg 60%
    02:00 +10°C° 0 mm 2 m/s 743 mmHg 61%
    03:00 +10°C° 0 mm 2 m/s 743 mmHg 63%
    04:00 +10°C° 0 mm 2 m/s 743 mmHg 65%
    05:00 +9°C° 0 mm 2 m/s 742 mmHg 67%
    06:00 +11°C° 0 mm 3 m/s 742 mmHg 65%
    07:00 +13°C° 0 mm 3 m/s 742 mmHg 64%
    08:00 +16°C° 0 mm 3 m/s 742 mmHg 63%
    09:00 +17°C° 0 mm 3 m/s 741 mmHg 60%
    10:00 +19°C° 0 mm 3 m/s 741 mmHg 57%
    11:00 +21°C° 0 mm 3 m/s 741 mmHg 55%
    12:00 +21°C° 0.1 mm 3 m/s 740 mmHg 54%
    13:00 +22°C° 0.1 mm 3 m/s 740 mmHg 54%
    14:00 +23°C° 0.1 mm 2 m/s 740 mmHg 54%
    15:00 +23°C° 0.6 mm 2 m/s 739 mmHg 55%
    16:00 +21°C° 0.6 mm 2 m/s 739 mmHg 57%
    17:00 +22°C° 0.6 mm 1 m/s 739 mmHg 59%
    18:00 +20°C° 0.1 mm 1 m/s 739 mmHg 66%
    19:00 +19°C° 0.1 mm 1 m/s 739 mmHg 73%
    20:00 +16°C° 0.1 mm 1 m/s 739 mmHg 80%
    21:00 +15°C° 0.1 mm 1 m/s 738 mmHg 83%
    22:00 +15°C° 0.1 mm 1 m/s 738 mmHg 85%
    23:00 +14°C° 0.1 mm 1 m/s 738 mmHg 88%

    Depois de amanhã, 28 Abril, Domingo

    Tempo Temperatura Precipitação Vento Pressão Humidade
    00:00 +14°C° 0 mm 1 m/s 738 mmHg 88%
    01:00 +12°C° 0 mm 0 m/s 738 mmHg 89%
    02:00 +12°C° 0 mm 0 m/s 738 mmHg 89%
    03:00 +12°C° 0 mm 1 m/s 738 mmHg 89%
    04:00 +12°C° 0 mm 1 m/s 739 mmHg 89%
    05:00 +12°C° 0 mm 2 m/s 739 mmHg 88%
    06:00 +12°C° 0 mm 3 m/s 739 mmHg 83%
    07:00 +13°C° 0 mm 4 m/s 739 mmHg 77%
    08:00 +14°C° 0 mm 5 m/s 740 mmHg 71%
    09:00 +15°C° 0 mm 5 m/s 740 mmHg 69%
    10:00 +16°C° 0 mm 6 m/s 741 mmHg 67%
    11:00 +16°C° 0 mm 6 m/s 741 mmHg 66%
    12:00 +16°C° 0 mm 6 m/s 742 mmHg 63%
    13:00 +16°C° 0 mm 6 m/s 742 mmHg 61%
    14:00 +16°C° 0 mm 6 m/s 742 mmHg 58%
    15:00 +16°C° 0 mm 6 m/s 742 mmHg 57%
    16:00 +15°C° 0 mm 6 m/s 743 mmHg 55%
    17:00 +14°C° 0 mm 6 m/s 743 mmHg 53%
    18:00 +13°C° 0 mm 6 m/s 744 mmHg 52%
    19:00 +10°C° 0 mm 6 m/s 744 mmHg 51%
    20:00 +8°C° 0 mm 5 m/s 745 mmHg 51%
    21:00 +7°C° 0 mm 5 m/s 746 mmHg 51%
    22:00 +6°C° 0 mm 5 m/s 746 mmHg 51%
    23:00 +5°C° 0 mm 5 m/s 746 mmHg 51%

    29 Abril, Segunda-feira

    Tempo Temperatura Precipitação Vento Pressão Humidade
    00:00 +5°C° 0 mm 5 m/s 747 mmHg 54%
    01:00 +3°C° 0 mm 5 m/s 747 mmHg 56%
    02:00 +3°C° 0 mm 4 m/s 747 mmHg 59%
    03:00 +3°C° 0 mm 4 m/s 747 mmHg 61%
    04:00 +3°C° 0 mm 4 m/s 748 mmHg 63%
    05:00 +1°C° 0 mm 4 m/s 748 mmHg 65%
    06:00 +2°C° 0 mm 5 m/s 748 mmHg 62%
    07:00 +5°C° 0 mm 5 m/s 748 mmHg 58%
    08:00 +5°C° 0 mm 6 m/s 748 mmHg 55%
    09:00 +7°C° 0 mm 6 m/s 748 mmHg 51%
    10:00 +8°C° 0 mm 6 m/s 748 mmHg 48%
    11:00 +9°C° 0 mm 6 m/s 748 mmHg 44%
    12:00 +10°C° 0 mm 5 m/s 748 mmHg 43%
    13:00 +10°C° 0 mm 5 m/s 748 mmHg 41%
    14:00 +12°C° 0 mm 5 m/s 747 mmHg 39%
    15:00 +12°C° 0 mm 5 m/s 747 mmHg 40%
    16:00 +11°C° 0 mm 4 m/s 747 mmHg 40%
    17:00 +11°C° 0 mm 4 m/s 747 mmHg 41%
    18:00 +10°C° 0 mm 4 m/s 747 mmHg 46%
    19:00 +8°C° 0 mm 3 m/s 747 mmHg 51%
    20:00 +6°C° 0 mm 2 m/s 747 mmHg 56%
    21:00 +6°C° 0 mm 2 m/s 747 mmHg 57%
    22:00 +5°C° 0 mm 2 m/s 747 mmHg 59%
    23:00 +4°C° 0 mm 2 m/s 747 mmHg 60%

    30 Abril, Terça-feira

    Tempo Temperatura Precipitação Vento Pressão Humidade
    00:00 +4°C° 0 mm 2 m/s 747 mmHg 62%
    01:00 +4°C° 0 mm 2 m/s 747 mmHg 63%
    02:00 +3°C° 0 mm 2 m/s 747 mmHg 65%
    03:00 +3°C° 0 mm 2 m/s 746 mmHg 66%
    04:00 +3°C° 0 mm 2 m/s 746 mmHg 67%
    05:00 +2°C° 0 mm 2 m/s 746 mmHg 68%
    06:00 +4°C° 0 mm 2 m/s 746 mmHg 62%
    07:00 +5°C° 0 mm 3 m/s 746 mmHg 56%
    08:00 +8°C° 0 mm 3 m/s 746 mmHg 51%
    09:00 +9°C° 0 mm 3 m/s 746 mmHg 47%
    10:00 +10°C° 0 mm 3 m/s 745 mmHg 43%
    11:00 +11°C° 0 mm 4 m/s 745 mmHg 40%
    12:00 +12°C° 0 mm 3 m/s 745 mmHg 39%
    13:00 +12°C° 0 mm 3 m/s 744 mmHg 38%
    14:00 +13°C° 0 mm 3 m/s 744 mmHg 37%
    15:00 +13°C° 0 mm 3 m/s 743 mmHg 38%
    16:00 +14°C° 0 mm 2 m/s 743 mmHg 39%
    17:00 +13°C° 0 mm 2 m/s 743 mmHg 40%
    18:00 +12°C° 0 mm 2 m/s 743 mmHg 43%
    19:00 +11°C° 0 mm 1 m/s 743 mmHg 47%
    20:00 +9°C° 0 mm 1 m/s 743 mmHg 51%
    21:00 +9°C° 0 mm 1 m/s 743 mmHg 51%
    22:00 +8°C° 0 mm 0 m/s 742 mmHg 51%
    23:00 +8°C° 0 mm 0 m/s 742 mmHg 50%

    1 Maio, Quarta-feira

    Tempo Temperatura Precipitação Vento Pressão Humidade
    00:00 +7°C° 0 mm 0 m/s 742 mmHg 52%
    01:00 +8°C° 0 mm 1 m/s 742 mmHg 54%
    02:00 +7°C° 0 mm 1 m/s 742 mmHg 55%
    03:00 +7°C° 0 mm 1 m/s 742 mmHg 58%
    04:00 +7°C° 0 mm 1 m/s 742 mmHg 61%
    05:00 +6°C° 0 mm 1 m/s 741 mmHg 63%
    06:00 +8°C° 0 mm 1 m/s 741 mmHg 59%
    07:00 +9°C° 0 mm 1 m/s 741 mmHg 56%
    08:00 +10°C° 0 mm 2 m/s 741 mmHg 52%
    09:00 +12°C° 0 mm 2 m/s 741 mmHg 47%
    10:00 +13°C° 0 mm 2 m/s 741 mmHg 43%
    11:00 +14°C° 0 mm 2 m/s 741 mmHg 38%
    12:00 +14°C° 0 mm 2 m/s 740 mmHg 38%
    13:00 +14°C° 0 mm 2 m/s 740 mmHg 38%
    14:00 +14°C° 0 mm 2 m/s 740 mmHg 39%
    15:00 +14°C° 0 mm 2 m/s 740 mmHg 40%
    16:00 +13°C° 0 mm 2 m/s 739 mmHg 41%
    17:00 +13°C° 0 mm 1 m/s 739 mmHg 42%
    18:00 +12°C° 0 mm 1 m/s 739 mmHg 47%
    19:00 +10°C° 0 mm 1 m/s 739 mmHg 51%
    20:00 +9°C° 0 mm 1 m/s 738 mmHg 55%
    21:00 +8°C° 0 mm 1 m/s 738 mmHg 56%
    22:00 +8°C° 0 mm 1 m/s 738 mmHg 58%
    23:00 +7°C° 0 mm 1 m/s 738 mmHg 59%
    Mostrar mais